Showing default

DUMMY SAT, 40073

Orbit data source: Space-Track

DUMMY SAT, 40073 is a Commonwealth of Independent States-origin payload satellite in SSO that was launched on Tue, 08 Jul 2014 UTC via a SOYUZ-2-1B launch vehicle from the Tyuratam Missile And Space Complex (TTMTR). Payload-class satellites include a variety of spacecraft equipped with specific instruments for various scientific and technological missions. These include communications satellites like Starlink; space stations such as the ISS; scientific satellites like the Hubble; Earth observation satellites from companies like Planet Labs, Umbra, and HawkEye 360; GPS; miniature CubeSats for education and research; and military/defense satellites.

Loading next visibility...
Identifier
40073, 2014-037E
Orbit
SSO
Last TLE update
4 hours ago
Origin
Manufacturer
ComDev
Mission
Non-operational Civil Technology
Bus & Motor
Unknown
Mass
75 kg wet, 75 kg dry
Launch date (UTC)
2014-07-08 (11 years ago)
Launch vehicle
SOYUZ-2-1B
Launch site
Tyuratam Missile And Space Complex (TTMTR)
Object type
Payload
Rocket body
Debris
Shape & HBR
Box, 0.8 m
Radar Cross Section
0.800 m², Medium (>0.1 m² and < 1m²)

Expand to show TLE details & history

TLE from 4 hours ago
0 DUMMY SAT
1 40073U 14037E   25129.22139431  .00000525  00000-0  72540-4 0  9997
2 40073  98.3366  57.1566 0006000 158.4713 201.6752 14.82560450585653
Epoch: 2025-05-09T05:18Z
Definitive object data (Epoch: 2025-05-09T05:18:48.468Z)
Latitude
-0.00005°
Longitude
110.17401°
Altitude
628.169 km
Speed
7.542 km/s
True Right ascension
03h 48m 37s
True Declination
0° 00' 00"
Sunlit
Object was in daylight at TLE epoch
Visualization TLE readout
Latitude
-66.80239°
Longitude
-89.51904°
Altitude
646.546 km
Speed
7.533 km/s
Apparent Right ascension
08h 06m 38s
Apparent Declination
-70° 16' 28"
Sunlit
Object is in full shadow
Visualization observer readout
Local Sidereal Time
17:49:28
Azimuth
199.299° SSW
Elevation
-54.874°
Doppler factor
1
Orbital elements
Apogee altitude
622.509 km
Perigee altitude
614.113 km
Semi-major axis
6,996.448 km
Eccentricity
0.0006
Inclination
98.3366°
RAAN
57.1566°
Arg. of periapsis
158.4713°
True anomaly
201.64982°
Mean anomaly
201.6752°
Eccentric anomaly
201.66251°
Mean motion
3.70874 °/min
BSTAR
0.00007254
Orbital period
97.07 mins
Loading maneuver chart data...
Loading SW <> Apogee altitude chart data...
Loading historical data...
Loading historical data...
Loading historical data...
Loading historical data...
Loading historical data...
Loading historical data...
Loading historical data...

DUMMY SAT Visibility forecast

Observer location: undefined°, undefined°

Span
Click to sort rows by Start time (UTC) header in descending order
Start Az.
Max El. time (UTC)
Max El. Az.
Max El.
End time (UTC)
End Az.
6 mins2025-05-09 18:25:06.095Z121.001° SE2025-05-09 18:28:06.095Z63.348° ENE25.73°2025-05-09 18:31:06.095Z13.206° NNE
5 mins2025-05-09 20:02:06.095Z229.265° WSW2025-05-09 20:04:06.095Z268.011° W21.598°2025-05-09 20:07:06.095Z315.386° NNW
6 mins2025-05-10 07:49:06.095Z28.912° NE2025-05-10 07:52:06.095Z129.666° SE38.993°2025-05-10 07:55:06.095Z178.155° S
|